Вернуться в каталог

BREEZE-KM DEB

АктивенPO
NORAD 41720·DEBRIS·🇷🇺 Russia

Запущен Mar 31, 2015 с Plesetsk Cosmodrome

Loading…

Ближайшие Пролёты (ближайшие 24 часа)

TLE

СвежийSource: Space-Track

Эпоха: Sep 14, 2026, 06:17 UTC

1 41720U 15020H   26257.26225829  .00000053  00000-0  13612-3 0  9994
2 41720  82.4832  93.0658 0230147  27.6630 333.6502 12.91007639530227

Отслеживайте BREEZE-KM DEB в реальном времени с AllMySat

Download on the App Store